Satellite: SO-50
Catalog number: 27607
Epoch time:      12165.77392259
Element set:     786
Inclination:      064.5594 deg
RA of node:       305.2828 deg
Eccentricity:    0.0082818
Arg of perigee:   249.4044 deg
Mean anomaly:     109.8177 deg
Mean motion:   14.72396592 rev/day
Decay rate:       8.21e-06 rev/day^2
Epoch rev:           50946
Checksum:              348

Satellite: CO-55
Catalog number: 27844
Epoch time:      12165.61238551
Element set:     395
Inclination:      098.7024 deg
RA of node:       174.0425 deg
Eccentricity:    0.0008859
Arg of perigee:   231.2482 deg
Mean anomaly:     128.7901 deg
Mean motion:   14.21028529 rev/day
Decay rate:       2.42e-06 rev/day^2
Epoch rev:           46438
Checksum:              308

Satellite: CO-57
Catalog number: 27848
Epoch time:      12165.54497950
Element set:    0347
Inclination:      098.7110 deg
RA of node:       173.3087 deg
Eccentricity:    0.0008659
Arg of perigee:   236.4301 deg
Mean anomaly:     123.6046 deg
Mean motion:   14.20779554 rev/day
Decay rate:       2.17e-06 rev/day^2
Epoch rev:           46431
Checksum:              319

Satellite: AO-51
Catalog number: 28375
Epoch time:      12165.46947333
Element set:     290
Inclination:      098.1475 deg
RA of node:       130.9185 deg
Eccentricity:    0.0084784
Arg of perigee:   052.2402 deg
Mean anomaly:     308.6436 deg
Mean motion:   14.40951581 rev/day
Decay rate:       1.93e-06 rev/day^2
Epoch rev:           41823
Checksum:              312

Satellite: CP3
Catalog number: 31129
Epoch time:      12165.57085980
Element set:     188
Inclination:      097.8842 deg
RA of node:       173.5602 deg
Eccentricity:    0.0102036
Arg of perigee:   133.9232 deg
Mean anomaly:     227.0401 deg
Mean motion:   14.53077182 rev/day
Decay rate:       7.34e-06 rev/day^2
Epoch rev:           27345
Checksum:              288

Satellite: CO-65
Catalog number: 32785
Epoch time:      12165.66850738
Element set:    0334
Inclination:      097.7995 deg
RA of node:       226.8031 deg
Eccentricity:    0.0015777
Arg of perigee:   074.4227 deg
Mean anomaly:     285.8738 deg
Mean motion:   14.82991841 rev/day
Decay rate:      1.592e-05 rev/day^2
Epoch rev:           22324
Checksum:              352

Satellite: PRISM
Catalog number: 33493
Epoch time:      12166.42840077
Element set:     788
Inclination:      098.1702 deg
RA of node:       306.9246 deg
Eccentricity:    0.0017816
Arg of perigee:   308.5494 deg
Mean anomaly:     051.4204 deg
Mean motion:   14.83892337 rev/day
Decay rate:      2.587e-05 rev/day^2
Epoch rev:           18334
Checksum:              319

Satellite: SOHLA-1
Catalog number: 33496
Epoch time:      12165.83729951
Element set:    0761
Inclination:      098.1046 deg
RA of node:       277.5950 deg
Eccentricity:    0.0007552
Arg of perigee:   058.1359 deg
Mean anomaly:     302.0581 deg
Mean motion:   14.69975468 rev/day
Decay rate:       4.00e-06 rev/day^2
Epoch rev:           18175
Checksum:              326

Satellite: SO-67
Catalog number: 35870
Epoch time:      12166.42839084
Element set:      48
Inclination:      097.2321 deg
RA of node:       202.2724 deg
Eccentricity:    0.0002648
Arg of perigee:   140.6537 deg
Mean anomaly:     342.9503 deg
Mean motion:   15.23822169 rev/day
Decay rate:      4.637e-05 rev/day^2
Epoch rev:           15219
Checksum:              303

Satellite: TISAT-1
Catalog number: 36799
Epoch time:      12166.36998303
Element set:      64
Inclination:      098.0620 deg
RA of node:       242.6842 deg
Eccentricity:    0.0014987
Arg of perigee:   176.3797 deg
Mean anomaly:     183.7528 deg
Mean motion:   14.81957995 rev/day
Decay rate:      1.968e-05 rev/day^2
Epoch rev:           10407
Checksum:              361

Satellite: STUDSAT
Catalog number: 36801
Epoch time:      12165.90347714
Element set:    0461
Inclination:      098.0718 deg
RA of node:       242.9100 deg
Eccentricity:    0.0012749
Arg of perigee:   164.3930 deg
Mean anomaly:     195.7676 deg
Mean motion:   14.84306629 rev/day
Decay rate:      6.013e-05 rev/day^2
Epoch rev:           10403
Checksum:              289

Satellite: FO-69
Catalog number: 37227
Epoch time:      12165.31385081
Element set:    0206
Inclination:      071.9687 deg
RA of node:       320.5061 deg
Eccentricity:    0.0017601
Arg of perigee:   323.0507 deg
Mean anomaly:     036.9443 deg
Mean motion:   14.77080688 rev/day
Decay rate:       5.51e-06 rev/day^2
Epoch rev:           03552
Checksum:              292

Satellite: FO-70
Catalog number: 37380
Epoch time:      12165.31875240
Element set:    0211
Inclination:      071.9719 deg
RA of node:       321.0504 deg
Eccentricity:    0.0018131
Arg of perigee:   319.9132 deg
Mean anomaly:     040.0692 deg
Mean motion:   14.76832026 rev/day
Decay rate:       5.18e-06 rev/day^2
Epoch rev:           03541
Checksum:              265

Satellite: ALMASAT-1
Catalog number: 38078
Epoch time:      12166.34852861
Element set:     299
Inclination:      069.4971 deg
RA of node:       323.6890 deg
Eccentricity:    0.0760981
Arg of perigee:   252.2672 deg
Mean anomaly:     099.4030 deg
Mean motion:   14.09107128 rev/day
Decay rate:     1.4679e-04 rev/day^2
Epoch rev:            1715
Checksum:              331

